Wind_Speed
43 44 43 42 42 42 43 43 44 44 43 43 42 41 40 40 39 39 38 39 38 38 38 38 37 36 36 36 36 36 37 37 37 38 39 39 39 39 40 40 40 41 41 42
45 45 43 43 43 43 43 44 45 45 44 45 44 43 42 41 40 40 39 39 39 39 39 38 38 37 37 37 37 37 37 38 38 39 40 40 41 41 41 42 42 43 43 44
45 44 44 44 44 44 44 44 44 45 45 46 47 46 44 42 42 41 41 40 40 40 40 39 39 38 38 38 38 38 39 39 40 40 41 41 41 42 43 43 44 44 44 45
45 44 44 44 45 44 44 44 44 45 46 47 47 48 46 44 43 43 42 42 41 41 41 40 40 39 40 40 40 40 41 41 41 41 41 42 42 43 43 44 45 45 45 46
44 44 44 44 44 44 44 44 44 45 46 48 48 49 47 45 44 43 43 42 42 42 42 42 41 41 41 41 41 42 42 42 42 42 43 43 44 44 45 45 46 46 47 47
43 44 44 44 44 44 44 43 43 44 45 48 47 48 49 46 44 43 42 42 42 43 43 42 42 42 42 42 42 43 43 43 43 44 44 45 45 46 46 46 47 47 47 48
43 44 44 44 44 45 44 44 44 45 46 48 46 48 49 46 44 43 42 42 42 42 43 43 43 43 43 43 43 44 44 44 44 45 45 46 46 47 47 48 48 48 48 49
42 44 44 44 44 44 44 44 45 45 46 46 45 47 48 46 44 44 42 42 42 42 42 43 43 44 44 44 44 44 44 44 44 45 45 46 47 48 48 49 50 50 50 50
41 43 43 44 43 44 44 45 44 44 44 45 46 46 46 45 45 44 43 42 42 42 42 42 43 43 44 44 44 44 44 44 44 45 46 47 47 48 49 50 50 50 50 50
40 42 43 44 44 44 44 43 44 45 45 43 44 44 44 45 45 45 43 42 42 42 42 42 43 43 43 43 43 43 43 44 44 45 46 47 48 48 49 49 49 50 51 51
39 41 42 42 43 42 43 44 45 45 46 45 43 43 43 44 44 44 43 42 42 41 41 41 41 42 42 43 43 43 44 44 45 45 46 46 47 47 47 47 48 49 50 50
37 40 41 41 41 41 41 42 43 43 44 45 44 43 42 42 43 44 43 42 41 41 41 41 41 41 41 42 42 43 43 44 45 45 46 47 46 46 46 46 47 47 48 49
35 37 38 39 40 41 40 40 41 42 42 43 43 43 42 42 42 42 42 41 41 40 40 40 40 40 39 40 41 42 42 43 43 44 44 44 44 44 45 45 45 45 47 48
34 36 37 38 38 39 40 39 39 41 42 41 41 41 41 42 42 42 41 40 39 39 40 41 40 39 39 39 40 40 41 41 42 42 43 42 42 43 44 45 45 45 45 46
33 35 35 36 37 38 40 40 39 39 40 40 39 39 39 40 40 40 40 39 39 39 40 40 40 39 39 40 41 41 41 41 41 41 41 42 42 43 43 44 44 44 45 46
32 34 34 35 36 38 38 39 40 39 39 40 40 39 39 39 39 39 39 39 39 39 39 39 39 40 40 40 41 41 41 41 41 41 41 42 42 43 43 43 43 43 44 44
31 32 32 32 33 35 37 37 38 39 39 39 40 38 38 38 38 38 38 37 37 38 38 38 38 39 40 40 40 41 40 40 41 40 41 42 42 42 42 42 42 42 43 43
30 32 33 33 32 34 34 35 36 37 37 38 38 39 39 39 39 39 39 38 38 37 38 38 38 39 40 40 40 40 39 39 40 40 40 41 41 42 42 42 42 41 41 41
29 30 32 34 34 34 34 34 34 35 35 35 36 37 39 39 39 38 38 38 37 38 38 39 39 39 39 40 40 39 39 39 40 39 39 40 40 41 41 41 41 41 41 41
26 27 29 31 32 32 32 32 32 33 34 35 35 36 36 37 37 37 37 36 36 36 37 38 38 39 39 39 39 39 39 39 39 39 39 39 39 40 40 40 40 40 40 40
24 25 26 28 30 31 30 30 31 32 32 33 34 34 35 36 36 35 36 36 36 36 36 37 37 37 37 38 38 39 40 40 39 38 38 38 39 39 39 38 38 38 38 38
24 24 25 26 28 29 29 30 31 31 31 31 32 33 33 34 34 34 34 35 35 35 36 36 36 37 37 37 38 38 38 38 37 37 38 38 39 38 37 37 36 36 35 35
24 25 25 26 27 28 28 29 30 31 31 31 31 31 32 32 34 34 34 35 35 36 37 37 36 36 36 37 37 36 36 36 36 36 37 37 37 36 35 35 33 32 32 33
21 23 24 26 27 27 27 28 29 30 30 30 29 30 31 32 32 33 33 34 35 36 36 36 36 35 34 35 35 35 35 35 35 35 35 35 35 34 33 32 31 31 31 32
20 21 22 24 24 25 26 27 27 27 27 27 28 29 30 30 31 31 32 33 33 34 34 35 35 35 35 34 34 34 34 34 33 33 33 33 33 32 31 31 31 30 31 32
20 21 22 22 23 23 23 24 25 26 27 28 28 29 30 31 31 31 31 31 32 32 32 33 35 35 35 35 34 34 34 33 31 31 31 31 31 30 30 30 30 30 30 30
Wind_Direction
240 240 241 242 243 244 244 244 243 242 243 243 242 242 242 243 244 245 246 247 248 249 251 252 253 254 255 256 257 257 258 260 262 262 263 264 265 265 266 266 266 266 268 269
239 239 240 241 242 242 244 245 245 244 244 245 244 243 243 243 245 246 247 247 248 249 250 252 254 255 256 257 258 259 260 261 263 264 264 265 265 265 266 267 267 267 268 270
240 240 239 240 241 242 243 244 245 246 245 246 246 245 244 244 245 246 247 248 249 250 251 253 254 255 257 258 258 260 260 262 263 265 265 266 266 266 266 267 268 268 269 271
240 238 239 240 241 242 244 244 245 246 246 246 246 247 244 245 246 247 248 249 250 251 252 254 256 256 257 258 259 260 261 263 264 266 266 266 266 267 267 268 268 269 270 271
240 239 239 239 241 242 243 244 245 246 246 247 246 248 245 245 247 247 248 249 250 252 253 255 256 258 258 259 260 261 262 264 265 266 266 266 267 267 267 268 268 269 269 271
240 239 239 239 240 241 242 242 243 245 246 247 246 248 247 246 247 248 248 249 250 252 254 256 257 258 259 260 261 262 263 264 265 266 266 266 267 268 268 269 269 269 271 272
241 240 240 239 240 240 241 242 243 244 245 247 246 248 249 248 248 249 249 250 252 253 255 256 257 258 260 261 262 263 265 265 265 265 266 266 267 268 268 269 270 269 270 271
241 239 239 239 239 241 241 241 243 245 247 249 248 249 249 250 251 251 251 252 253 254 255 256 258 259 261 262 264 264 264 264 265 266 267 267 268 268 268 269 270 269 270 272
241 240 238 237 237 239 239 240 241 244 247 248 249 250 249 250 252 252 252 253 254 255 256 258 259 260 262 263 264 263 263 264 266 267 268 269 269 269 269 270 269 269 271 271
242 241 239 238 238 238 239 240 239 240 243 246 248 250 251 250 252 253 253 253 254 256 258 259 260 262 263 264 263 263 263 264 265 267 268 269 269 270 270 269 268 269 270 271
242 242 239 238 238 238 238 238 239 240 242 244 247 249 250 252 252 253 254 254 256 257 258 259 260 261 262 263 263 263 263 265 266 267 268 269 270 270 270 269 268 270 271 271
242 242 241 240 238 238 238 238 238 239 241 243 245 248 250 252 254 255 256 257 257 257 258 259 260 261 261 262 263 264 264 265 267 268 269 270 270 269 269 268 270 271 271 272
241 241 241 241 239 236 235 235 237 239 241 242 243 246 249 251 254 255 257 257 258 258 259 259 260 260 261 262 263 264 265 266 267 268 269 269 269 268 268 269 271 272 272 273
240 241 240 239 240 239 237 235 236 238 239 241 243 245 247 249 251 253 255 256 257 258 258 259 259 259 260 261 263 265 266 267 267 268 268 267 267 268 270 270 271 272 273 274
239 240 240 239 239 240 240 237 237 238 239 241 241 243 245 247 249 252 254 255 256 258 258 259 260 261 261 262 263 265 266 267 267 267 267 266 268 270 272 272 272 273 273 274
239 239 238 238 238 240 240 239 239 240 240 241 241 243 245 248 249 251 253 255 256 257 258 259 259 260 261 263 264 265 266 267 267 267 266 267 269 271 272 272 272 273 274 274
239 237 236 237 237 238 240 241 243 243 243 244 245 245 246 249 250 252 254 256 257 257 258 258 259 260 261 263 264 266 266 267 268 268 267 268 270 272 272 271 272 273 273 274
240 240 238 239 239 240 241 243 245 244 245 247 248 247 248 250 252 253 254 256 256 257 258 259 260 260 261 263 264 266 266 266 266 266 267 268 270 271 271 271 272 272 273 275
241 240 240 241 243 244 242 244 245 246 246 247 248 249 249 251 252 253 255 257 257 258 258 259 260 260 261 262 264 265 266 266 266 267 268 269 270 271 272 272 272 272 273 275
240 240 241 242 245 246 244 244 245 246 247 246 248 248 249 251 253 254 255 257 257 258 258 259 260 260 261 262 264 265 265 266 267 267 269 270 271 272 272 272 272 271 273 274
238 240 241 241 243 245 245 244 246 247 248 248 248 249 249 250 253 255 255 256 257 258 259 260 260 260 261 262 263 264 265 266 267 267 268 269 271 272 271 271 272 272 272 273
240 241 242 243 243 245 245 246 247 249 249 250 251 251 251 251 253 255 256 256 257 259 260 261 262 261 261 262 263 264 265 266 266 266 267 269 271 272 271 271 271 271 271 272
244 244 244 245 245 246 247 249 250 249 250 250 251 252 252 252 253 255 256 257 259 260 260 260 260 262 262 263 263 264 265 266 266 267 269 270 271 272 271 271 270 269 271 272
246 244 245 245 244 245 246 248 249 250 251 250 251 252 253 253 254 256 258 259 260 260 260 260 260 261 262 263 263 264 265 266 267 268 268 269 270 270 269 268 268 270 271 272
246 246 246 245 243 244 245 248 249 249 250 251 250 252 253 254 256 258 259 259 260 261 260 260 260 260 261 263 263 264 265 265 266 267 268 269 270 268 266 266 268 270 273 275
247 249 248 246 246 246 246 248 249 250 251 251 252 252 253 255 257 258 259 259 260 260 259 260 260 261 262 263 263 264 264 264 266 267 268 268 268 267 267 266 268 271 274 275
Height
5647 5652 5657 5662 5665 5669 5671 5675 5678 5683 5686 5689 5693 5698 5702 5705 5709 5712 5715 5718 5721 5724 5727 5729 5731 5733 5735 5737 5739 5740 5742 5743 5744 5745 5746 5747 5749 5750 5751 5751 5752 5753 5753 5754
5637 5642 5649 5651 5654 5658 5662 5665 5669 5673 5676 5679 5683 5688 5693 5696 5700 5704 5707 5710 5713 5716 5718 5720 5723 5725 5727 5729 5730 5732 5733 5735 5736 5736 5737 5738 5739 5740 5741 5742 5743 5743 5744 5744
5626 5634 5637 5640 5644 5648 5652 5656 5660 5663 5666 5669 5673 5678 5683 5687 5690 5694 5698 5701 5704 5706 5709 5712 5714 5716 5718 5720 5722 5723 5724 5725 5726 5727 5728 5728 5729 5730 5731 5731 5732 5733 5733 5734
5615 5622 5626 5630 5634 5638 5642 5647 5649 5652 5655 5659 5663 5666 5674 5677 5681 5685 5689 5692 5694 5697 5700 5702 5705 5707 5709 5711 5712 5713 5714 5715 5716 5717 5718 5718 5719 5720 5720 5721 5722 5722 5723 5723
5606 5611 5615 5619 5625 5628 5632 5636 5639 5642 5644 5648 5653 5655 5663 5667 5671 5675 5679 5682 5685 5688 5690 5693 5695 5697 5699 5701 5702 5703 5704 5705 5706 5706 5707 5708 5708 5709 5709 5710 5710 5711 5711 5711
5595 5600 5604 5609 5614 5618 5621 5626 5629 5631 5633 5637 5644 5645 5650 5657 5662 5665 5669 5672 5675 5678 5680 5682 5685 5687 5688 5690 5691 5692 5693 5694 5694 5695 5695 5696 5697 5697 5698 5698 5699 5699 5699 5699
5585 5589 5594 5599 5603 5607 5612 5616 5619 5621 5623 5628 5635 5635 5641 5647 5652 5655 5659 5662 5665 5668 5670 5672 5674 5676 5678 5679 5680 5680 5681 5681 5682 5683 5683 5684 5685 5685 5686 5686 5686 5687 5687 5687
5574 5579 5584 5588 5593 5598 5602 5606 5610 5613 5616 5620 5623 5625 5632 5637 5641 5644 5648 5651 5654 5657 5659 5661 5663 5665 5667 5667 5668 5668 5668 5669 5670 5671 5671 5672 5672 5672 5673 5673 5673 5674 5674 5674
5563 5568 5573 5578 5583 5587 5591 5595 5601 5603 5605 5609 5612 5617 5622 5626 5629 5634 5638 5641 5644 5647 5649 5651 5652 5654 5655 5655 5655 5656 5657 5658 5659 5659 5659 5659 5660 5660 5660 5660 5660 5661 5661 5662
5553 5558 5563 5567 5572 5576 5582 5586 5590 5592 5595 5599 5604 5608 5612 5616 5619 5623 5627 5631 5634 5636 5638 5640 5642 5643 5643 5644 5644 5645 5646 5646 5647 5647 5647 5647 5647 5647 5647 5647 5648 5648 5649 5648
5544 5548 5552 5557 5562 5567 5572 5576 5579 5583 5586 5591 5595 5601 5601 5605 5609 5612 5616 5620 5623 5626 5628 5629 5631 5632 5632 5633 5633 5634 5635 5635 5635 5635 5635 5635 5634 5634 5634 5635 5635 5635 5635 5635
5534 5538 5542 5548 5552 5556 5561 5565 5570 5574 5578 5582 5587 5592 5592 5595 5599 5602 5606 5609 5613 5616 5618 5619 5620 5621 5622 5622 5622 5623 5623 5624 5624 5624 5624 5623 5623 5622 5623 5623 5623 5623 5623 5623
5525 5529 5533 5538 5543 5546 5551 5555 5560 5564 5568 5572 5577 5583 5583 5586 5589 5592 5595 5599 5602 5605 5607 5609 5610 5611 5612 5612 5612 5613 5613 5613 5613 5612 5612 5612 5612 5612 5612 5612 5611 5611 5611 5611
5517 5520 5525 5530 5533 5537 5542 5546 5550 5554 5558 5563 5568 5572 5574 5577 5579 5582 5585 5588 5592 5594 5596 5598 5600 5601 5602 5602 5603 5602 5603 5602 5602 5602 5602 5602 5602 5602 5601 5601 5601 5600 5600 5599
5508 5512 5516 5520 5524 5528 5532 5537 5541 5545 5549 5554 5559 5562 5564 5567 5570 5573 5576 5578 5581 5584 5586 5588 5589 5590 5591 5592 5592 5593 5593 5593 5593 5592 5592 5592 5592 5591 5591 5590 5590 5589 5588 5587
5500 5505 5508 5512 5516 5519 5523 5528 5532 5537 5540 5544 5548 5552 5555 5557 5560 5563 5566 5568 5571 5573 5575 5577 5578 5579 5580 5581 5582 5582 5582 5583 5583 5583 5582 5582 5582 5581 5581 5580 5579 5578 5577 5575
5493 5497 5501 5504 5508 5510 5515 5521 5524 5528 5531 5535 5538 5544 5545 5548 5551 5554 5556 5558 5561 5563 5564 5566 5567 5569 5570 5571 5571 5572 5572 5572 5572 5572 5572 5572 5571 5571 5570 5569 5568 5567 5566 5564
5486 5489 5492 5496 5500 5503 5510 5512 5515 5519 5523 5526 5529 5533 5536 5538 5541 5544 5546 5548 5550 5552 5554 5555 5556 5558 5559 5560 5560 5561 5561 5562 5562 5562 5561 5561 5561 5560 5559 5558 5557 5556 5555 5554
5480 5483 5486 5489 5491 5495 5501 5504 5507 5510 5514 5517 5520 5523 5526 5529 5531 5534 5536 5538 5540 5542 5543 5544 5545 5547 5548 5549 5549 5550 5550 5551 5551 5551 5551 5551 5550 5549 5548 5547 5546 5545 5544 5544
5473 5476 5480 5482 5485 5488 5494 5496 5499 5503 5506 5509 5511 5514 5517 5519 5523 5526 5527 5529 5530 5531 5532 5534 5535 5536 5537 5538 5539 5539 5540 5540 5540 5540 5540 5540 5539 5538 5538 5537 5536 5535 5534 5533
5467 5470 5472 5475 5477 5481 5486 5488 5491 5496 5499 5500 5502 5505 5508 5510 5514 5516 5517 5519 5520 5521 5523 5524 5525 5526 5526 5527 5528 5528 5529 5530 5530 5530 5530 5529 5529 5528 5527 5526 5525 5524 5523 5523
5461 5464 5467 5469 5471 5477 5479 5481 5484 5487 5490 5492 5494 5496 5499 5501 5503 5505 5507 5509 5510 5512 5513 5514 5515 5515 5516 5517 5517 5518 5518 5519 5519 5519 5519 5519 5518 5517 5516 5516 5515 5514 5513 5513
5455 5459 5461 5464 5467 5469 5471 5473 5476 5478 5481 5483 5486 5488 5490 5492 5494 5496 5498 5499 5500 5502 5503 5504 5505 5506 5506 5506 5507 5507 5508 5508 5509 5509 5509 5509 5508 5508 5507 5506 5505 5505 5504 5503
5450 5452 5454 5457 5459 5461 5464 5466 5468 5470 5473 5475 5477 5479 5481 5483 5485 5487 5488 5489 5491 5492 5492 5493 5494 5496 5496 5497 5497 5498 5498 5499 5499 5499 5499 5499 5499 5498 5498 5497 5496 5496 5495 5495
5445 5447 5448 5450 5453 5455 5457 5459 5461 5463 5465 5467 5469 5471 5472 5474 5476 5478 5479 5480 5481 5482 5483 5484 5485 5486 5487 5487 5488 5488 5489 5489 5489 5490 5490 5489 5489 5489 5489 5488 5488 5487 5487 5486
5441 5442 5443 5445 5447 5449 5451 5452 5454 5456 5457 5459 5461 5463 5464 5466 5467 5468 5469 5470 5471 5472 5473 5474 5475 5476 5477 5478 5478 5479 5479 5480 5480 5480 5481 5481 5480 5480 5480 5480 5480 5479 5478 5478